User: anonymous   Login
Location: Unspecified
(0.0000°N, 0.0000°E)
Time: 19:00:25
(UTC+00:00)
Language:

AIST 2 - Orbit

View from above orbital plane
View from above orbital plane
View from above satellite
View from above satellite

Ground track
Ground track

The orbit data is extracted from the following two-line orbital elements,

1 39133U 13015D   19341.40261767  .00000072  00000-0  17647-4 0  9998
2 39133  64.8751 309.8637 0034189 292.5615  67.1893 15.04817074364197
Epoch (UTC): 07 December 2019 09:39:46
Eccentricity: 0.0034189
inclination: 64.8751°
perigee height: 528 km
apogee height: 576 km
right ascension of ascending node: 309.8637°
argument of perigee: 292.5615°
revolutions per day: 15.04817074
mean anomaly at epoch: 67.1893°
orbit number at epoch: 36419

The dashed part of the orbit path shows where the satellite is in the earth's shadow,  

DLR